Flag for Norway Weather past 2 weeks in Hammerfest, Norway

Now
54 °F

Clear.


Feels Like: 52 °F
Forecast: 49 / 54 °F
Wind: 6 mph from Southwest

Location: Hammerfest

Current Time: Sep 1, 2014 at 2:19:13 PM

Latest Report: Sep 1, 2014 at 1:50 PM


Visibility: N/A

Pressure: 29.98 "Hg

Humidity: 72%

Dew point: 45 °F

Location of HammerfestLocation

Historic Weather in Hammerfest — Graph

°F

Hammerfest temperature yesterday

Maximum temperature yesterday: 50 °F (at 8:50 AM)
Minimum temperature yesterday: 41 °F (at 10:50 PM)
Average temperature yesterday: 48 °F

Past Weeks' High & Low Weather Summary

 TemperatureHumidityPressure
High61 °F (Aug 25, 1:50 PM)100% (Aug 17, 2:50 PM)30.15 "Hg (Aug 17, 2:50 PM)
Low39 °F (Aug 22, 2:50 AM)52% (Aug 25, 1:50 PM)29.56 "Hg (Aug 19, 10:50 PM)
Average48 °F85%29.86 "Hg
* Reported Aug 17 12:50 PM — Sep 1 12:50 PM, Hammerfest, Weather by CustomWeather, © 2014

Note: Actual official high and low records may vary slightly from our data, if they occured in-between our weather recording intervals... More about our weather records

Advertising

Hammerfest weather history for previous 24 hours

 ConditionsComfort  
Time TempWeatherWind HumidityBarometerVisibility
12:50 PM
Sep 1
55 °FScattered clouds.2 mph72%29.98 "HgN/A
11:50 AM52 °FScattered clouds.1 mph77%29.98 "HgN/A
10:50 AM52 °FScattered clouds.5 mph77%29.98 "HgN/A
9:50 AM48 °FScattered clouds.2 mph87%29.98 "HgN/A
8:50 AM48 °FScattered clouds.5 mph87%29.98 "HgN/A
7:50 AM48 °FScattered clouds.1 mph87%29.98 "HgN/A
6:50 AM45 °FPartly sunny.2 mph100%30.01 "HgN/A
5:50 AM41 °FScattered clouds.1 mph100%30.01 "HgN/A
4:50 AM41 °FPassing clouds.2 mph100%30.01 "HgN/A
3:50 AM41 °FClear.1 mph93%30.01 "Hg10 mi
2:50 AM41 °FClear.No wind93%30.04 "Hg10 mi
1:50 AM41 °FClear.2 mph93%30.04 "Hg10 mi
11:50 PM
Aug 31
41 °FClear.1 mph93%30.07 "Hg10 mi
10:50 PM41 °FClear.2 mph93%30.07 "Hg10 mi
9:50 PM45 °FPassing clouds.5 mph87%30.07 "HgN/A
8:50 PM45 °FPassing clouds.2 mph93%30.07 "HgN/A
7:50 PM45 °FPassing clouds.3 mph87%30.09 "HgN/A
6:50 PM48 °FPassing clouds.3 mph82%30.09 "HgN/A
4:50 PM50 °FPartly sunny.5 mph76%30.12 "HgN/A
3:50 PM50 °FPartly sunny.1 mph82%30.12 "HgN/A
2:50 PM50 °FPartly sunny.7 mph82%30.12 "HgN/A
Weather by CustomWeather, © 2014

See weather overviewHow to use our weather pages